| time (UTC) | temp F | wind direction | speed MPH | gust MPH | rain 1hr in | rain 24hr in | rain mn in | humidity % | barometer mb |
| 20260905234717 | 78 | 0 | 0.0 | 0.0 | 0.06 | 0.06 | 0.06 | 88 | 1011.2 |
| 20260905234218 | 79 | 0 | 0.0 | 0.0 | 0.06 | 0.06 | 0.06 | 87 | 1011.2 |
| 20260905233503 | 80 | 0 | 0.0 | 0.0 | 0.06 | 0.06 | 0.06 | 85 | 1011.2 |
| 20260905233003 | 81 | 0 | 0.0 | 0.0 | 0.06 | 0.06 | 0.06 | 82 | 1010.8 |
| 20260905232503 | 82 | 210 | 0.0 | 2.0 | 0.06 | 0.06 | 0.06 | 80 | 1010.9 |
| 20260905232003 | 84 | 210 | 2.0 | 8.0 | 0.06 | 0.06 | 0.06 | 77 | 1011.0 |
| 20260905231503 | 87 | 210 | 4.0 | 12.0 | 0.03 | 0.03 | 0.03 | 71 | 1010.9 |
| 20260905231218 | 88 | 210 | 2.0 | 12.0 | 0.00 | 0.00 | 0.00 | 69 | 1011.0 |
| 20260905230503 | 90 | 0 | 0.0 | 0.0 | 0.00 | 0.00 | 0.00 | 68 | 1010.9 |
| 20260905230003 | 91 | 0 | 0.0 | 0.0 | 0.00 | 0.00 | 0.00 | 66 | 1010.6 |
| 20260905225503 | 92 | 0 | 0.0 | 0.0 | 0.00 | 0.00 | 0.00 | 63 | 1010.6 |
| 20260905225003 | 92 | 0 | 0.0 | 0.0 | 0.00 | 0.00 | 0.00 | 65 | 1010.3 |
| 20260905224503 | 92 | 0 | 0.0 | 0.0 | 0.00 | 0.00 | 0.00 | 62 | 1010.1 |
| 20260905224003 | 92 | 0 | 0.0 | 0.0 | 0.00 | 0.00 | 0.00 | 61 | 1010.3 |
| 20260905223503 | 92 | 210 | 0.0 | 2.0 | 0.00 | 0.00 | 0.00 | 59 | 1010.3 |
| 20260905223003 | 92 | 210 | 0.0 | 2.0 | 0.00 | 0.00 | 0.00 | 58 | 1010.3 |
| 20260905222503 | 92 | 0 | 0.0 | 0.0 | 0.00 | 0.00 | 0.00 | 60 | 1010.2 |
| 20260905222003 | 92 | 0 | 0.0 | 0.0 | 0.00 | 0.00 | 0.00 | 58 | 1010.2 |
| 20260905221503 | 92 | 0 | 0.0 | 0.0 | 0.00 | 0.00 | 0.00 | 58 | 1010.3 |
| 20260905221003 | 92 | 210 | 0.0 | 2.0 | 0.00 | 0.00 | 0.00 | 59 | 1010.2 |
| 20260905220503 | 92 | 210 | 0.0 | 2.0 | 0.00 | 0.00 | 0.00 | 59 | 1010.2 |
| 20260905220003 | 92 | 210 | 0.0 | 2.0 | 0.00 | 0.00 | 0.00 | 59 | 1010.3 |
| 20260905215503 | 92 | 0 | 0.0 | 0.0 | 0.00 | 0.00 | 0.00 | 60 | 1010.4 |
| 20260905215003 | 92 | 0 | 0.0 | 0.0 | 0.00 | 0.00 | 0.00 | 61 | 1010.4 |
| 20260905214503 | 92 | 210 | 0.0 | 4.0 | 0.00 | 0.00 | 0.00 | 58 | 1010.4 |
| 20260905214003 | 92 | 210 | 0.0 | 4.0 | 0.00 | 0.00 | 0.00 | 59 | 1010.4 |
| 20260905213503 | 92 | 210 | 0.0 | 6.0 | 0.00 | 0.00 | 0.00 | 58 | 1010.4 |
| 20260905213003 | 92 | 210 | 0.0 | 6.0 | 0.00 | 0.00 | 0.00 | 59 | 1010.4 |
| 20260905212503 | 92 | 210 | 0.0 | 6.0 | 0.00 | 0.00 | 0.00 | 58 | 1010.4 |
| 20260905212003 | 92 | 0 | 0.0 | 0.0 | 0.00 | 0.00 | 0.00 | 58 | 1010.4 |
| 20260905211503 | 92 | 210 | 0.0 | 4.0 | 0.00 | 0.00 | 0.00 | 58 | 1010.5 |
| 20260905211003 | 93 | 210 | 0.0 | 4.0 | 0.00 | 0.00 | 0.00 | 57 | 1010.5 |
| 20260905210503 | 93 | 210 | 0.0 | 4.0 | 0.00 | 0.00 | 0.00 | 58 | 1010.5 |
| 20260905210003 | 93 | 0 | 0.0 | 0.0 | 0.00 | 0.00 | 0.00 | 57 | 1010.6 |
| 20260905205503 | 93 | 210 | 0.0 | 2.0 | 0.00 | 0.00 | 0.00 | 57 | 1010.6 |
| 20260905205217 | 93 | 210 | 0.0 | 2.0 | 0.00 | 0.00 | 0.00 | 57 | 1010.7 |
| 20260905204503 | 93 | 210 | 0.0 | 4.0 | 0.00 | 0.00 | 0.00 | 56 | 1010.7 |
| 20260905204003 | 94 | 210 | 0.0 | 4.0 | 0.00 | 0.00 | 0.00 | 55 | 1010.8 |
| 20260905203503 | 94 | 210 | 0.0 | 4.0 | 0.00 | 0.00 | 0.00 | 55 | 1010.8 |
| 20260905203217 | 94 | 210 | 0.0 | 4.0 | 0.00 | 0.00 | 0.00 | 56 | 1010.9 |
| 20260905202503 | 94 | 210 | 0.0 | 4.0 | 0.00 | 0.00 | 0.00 | 55 | 1010.8 |
| 20260905202003 | 94 | 210 | 2.0 | 4.0 | 0.00 | 0.00 | 0.00 | 55 | 1011.1 |
| 20260905201503 | 95 | 210 | 2.0 | 4.0 | 0.00 | 0.00 | 0.00 | 54 | 1011.1 |
| 20260905201003 | 96 | 210 | 0.0 | 4.0 | 0.00 | 0.00 | 0.00 | 54 | 1011.1 |
| 20260905200503 | 96 | 210 | 0.0 | 4.0 | 0.00 | 0.00 | 0.00 | 53 | 1011.1 |
| 20260905200003 | 96 | 210 | 0.0 | 4.0 | 0.00 | 0.00 | 0.00 | 54 | 1011.2 |
| 20260905195503 | 95 | 210 | 2.0 | 6.0 | 0.00 | 0.00 | 0.00 | 55 | 1011.2 |
| 20260905195003 | 96 | 210 | 2.0 | 6.0 | 0.00 | 0.00 | 0.00 | 53 | 1011.3 |
| 20260905194503 | 96 | 210 | 2.0 | 8.0 | 0.00 | 0.00 | 0.00 | 51 | 1011.4 |
| 20260905194003 | 97 | 210 | 0.0 | 8.0 | 0.00 | 0.00 | 0.00 | 51 | 1011.4 |
| 20260905193503 | 97 | 210 | 0.0 | 2.0 | 0.00 | 0.00 | 0.00 | 51 | 1011.5 |
| 20260905193216 | 98 | 210 | 0.0 | 2.0 | 0.00 | 0.00 | 0.00 | 51 | 1011.5 |
| 20260905192503 | 97 | 210 | 0.0 | 2.0 | 0.00 | 0.00 | 0.00 | 52 | 1011.5 |
| 20260905192003 | 98 | 210 | 0.0 | 2.0 | 0.00 | 0.00 | 0.00 | 51 | 1011.6 |
| 20260905191503 | 98 | 210 | 0.0 | 2.0 | 0.00 | 0.00 | 0.00 | 51 | 1011.6 |
| 20260905191003 | 98 | 210 | 0.0 | 4.0 | 0.00 | 0.00 | 0.00 | 52 | 1011.6 |
| 20260905190503 | 97 | 210 | 0.0 | 4.0 | 0.00 | 0.00 | 0.00 | 52 | 1011.8 |
| 20260905190003 | 97 | 210 | 0.0 | 2.0 | 0.00 | 0.00 | 0.00 | 52 | 1011.8 |
| 20260905185717 | 97 | 210 | 0.0 | 2.0 | 0.00 | 0.00 | 0.00 | 53 | 1011.9 |
| 20260905185003 | 96 | 210 | 0.0 | 2.0 | 0.00 | 0.00 | 0.00 | 53 | 1012.1 |
| 20260905184503 | 96 | 210 | 0.0 | 4.0 | 0.00 | 0.00 | 0.00 | 52 | 1012.1 |
| 20260905184003 | 96 | 210 | 2.0 | 4.0 | 0.00 | 0.00 | 0.00 | 51 | 1012.2 |
| 20260905183503 | 96 | 210 | 2.0 | 6.0 | 0.00 | 0.00 | 0.00 | 53 | 1012.3 |
| 20260905183003 | 96 | 210 | 2.0 | 6.0 | 0.00 | 0.00 | 0.00 | 52 | 1012.3 |
| 20260905182503 | 96 | 210 | 0.0 | 6.0 | 0.00 | 0.00 | 0.00 | 53 | 1012.4 |
| 20260905182003 | 96 | 210 | 0.0 | 6.0 | 0.00 | 0.00 | 0.00 | 53 | 1012.5 |
| 20260905181717 | 95 | 210 | 2.0 | 6.0 | 0.00 | 0.00 | 0.00 | 53 | 1012.5 |
| 20260905181003 | 96 | 210 | 2.0 | 6.0 | 0.00 | 0.00 | 0.00 | 53 | 1012.5 |
| 20260905180503 | 95 | 210 | 2.0 | 6.0 | 0.00 | 0.00 | 0.00 | 54 | 1012.6 |
| 20260905180003 | 95 | 210 | 2.0 | 8.0 | 0.00 | 0.00 | 0.00 | 54 | 1012.6 |
| 20260905175503 | 94 | 210 | 2.0 | 8.0 | 0.00 | 0.00 | 0.00 | 54 | 1012.6 |
| 20260905175003 | 94 | 210 | 2.0 | 10.0 | 0.00 | 0.00 | 0.00 | 54 | 1012.7 |
| 20260905174503 | 94 | 210 | 2.0 | 10.0 | 0.00 | 0.00 | 0.00 | 54 | 1012.9 |
| 20260905174218 | 94 | 210 | 2.0 | 6.0 | 0.00 | 0.00 | 0.00 | 54 | 1012.8 |
| 20260905173503 | 94 | 210 | 0.0 | 8.0 | 0.00 | 0.00 | 0.00 | 54 | 1012.8 |
| 20260905173003 | 94 | 210 | 2.0 | 8.0 | 0.00 | 0.00 | 0.00 | 54 | 1012.7 |
| 20260905172503 | 93 | 210 | 4.0 | 12.0 | 0.00 | 0.00 | 0.00 | 57 | 1012.8 |
| 20260905172003 | 93 | 210 | 4.0 | 12.0 | 0.00 | 0.00 | 0.00 | 56 | 1013.0 |
| 20260905171503 | 92 | 210 | 2.0 | 6.0 | 0.00 | 0.00 | 0.00 | 57 | 1013.0 |
| 20260905171003 | 92 | 210 | 2.0 | 10.0 | 0.00 | 0.00 | 0.00 | 57 | 1013.1 |
| 20260905170503 | 93 | 210 | 4.0 | 10.0 | 0.00 | 0.00 | 0.00 | 56 | 1013.3 |
| 20260905170218 | 93 | 210 | 2.0 | 6.0 | 0.00 | 0.00 | 0.00 | 58 | 1013.3 |
| 20260905165503 | 93 | 210 | 2.0 | 8.0 | 0.00 | 0.00 | 0.00 | 57 | 1013.4 |
| 20260905165003 | 92 | 210 | 2.0 | 8.0 | 0.00 | 0.00 | 0.00 | 58 | 1013.5 |
| 20260905164503 | 92 | 210 | 2.0 | 6.0 | 0.00 | 0.00 | 0.00 | 60 | 1013.5 |
| 20260905164217 | 92 | 210 | 2.0 | 8.0 | 0.00 | 0.00 | 0.00 | 59 | 1013.5 |
| 20260905163716 | 91 | 210 | 2.0 | 10.0 | 0.00 | 0.00 | 0.00 | 60 | 1013.5 |
| 20260905163003 | 91 | 210 | 2.0 | 10.0 | 0.00 | 0.00 | 0.00 | 61 | 1013.4 |
| 20260905162503 | 90 | 210 | 2.0 | 10.0 | 0.00 | 0.00 | 0.00 | 64 | 1013.5 |
| 20260905162003 | 89 | 210 | 2.0 | 8.0 | 0.00 | 0.00 | 0.00 | 63 | 1013.5 |
| 20260905161718 | 89 | 210 | 4.0 | 10.0 | 0.00 | 0.00 | 0.00 | 64 | 1013.5 |
| 20260905161003 | 89 | 210 | 4.0 | 10.0 | 0.00 | 0.00 | 0.00 | 64 | 1013.6 |
| 20260905160503 | 89 | 210 | 4.0 | 10.0 | 0.00 | 0.00 | 0.00 | 63 | 1013.6 |
| 20260905160003 | 89 | 210 | 2.0 | 10.0 | 0.00 | 0.00 | 0.00 | 65 | 1013.7 |
| 20260905155503 | 88 | 210 | 2.0 | 10.0 | 0.00 | 0.00 | 0.00 | 66 | 1013.9 |
| 20260905155217 | 88 | 210 | 2.0 | 6.0 | 0.00 | 0.00 | 0.00 | 65 | 1013.9 |
| 20260905154503 | 88 | 210 | 0.0 | 10.0 | 0.00 | 0.00 | 0.00 | 69 | 1013.9 |
| 20260905154003 | 86 | 210 | 0.0 | 10.0 | 0.00 | 0.00 | 0.00 | 70 | 1013.9 |
| 20260905153718 | 86 | 210 | 2.0 | 10.0 | 0.00 | 0.00 | 0.00 | 70 | 1013.9 |
| 20260905153003 | 85 | 210 | 4.0 | 10.0 | 0.00 | 0.00 | 0.00 | 70 | 1013.9 |
| 20260905152503 | 84 | 210 | 2.0 | 10.0 | 0.00 | 0.00 | 0.00 | 72 | 1014.1 |
| 20260905152003 | 83 | 210 | 4.0 | 12.0 | 0.00 | 0.00 | 0.00 | 74 | 1014.1 |
| 20260905151503 | 83 | 210 | 4.0 | 12.0 | 0.00 | 0.00 | 0.00 | 73 | 1014.2 |
| 20260905151003 | 83 | 210 | 4.0 | 12.0 | 0.00 | 0.00 | 0.00 | 74 | 1014.2 |
| 20260905150503 | 82 | 210 | 4.0 | 12.0 | 0.00 | 0.00 | 0.00 | 76 | 1014.3 |
| 20260905150003 | 82 | 210 | 2.0 | 12.0 | 0.00 | 0.00 | 0.00 | 76 | 1014.3 |
| 20260905145503 | 82 | 210 | 2.0 | 6.0 | 0.00 | 0.00 | 0.00 | 76 | 1014.3 |
| 20260905145003 | 81 | 210 | 2.0 | 6.0 | 0.00 | 0.00 | 0.00 | 78 | 1014.4 |
| 20260905144503 | 80 | 210 | 2.0 | 8.0 | 0.00 | 0.00 | 0.00 | 80 | 1014.5 |
| 20260905144217 | 80 | 210 | 2.0 | 8.0 | 0.00 | 0.00 | 0.00 | 80 | 1014.4 |
| 20260905143503 | 78 | 210 | 2.0 | 6.0 | 0.00 | 0.00 | 0.00 | 84 | 1014.3 |
| 20260905143003 | 78 | 210 | 0.0 | 4.0 | 0.00 | 0.00 | 0.00 | 85 | 1014.3 |
| 20260905142503 | 77 | 210 | 0.0 | 4.0 | 0.00 | 0.00 | 0.00 | 86 | 1014.4 |
| 20260905142003 | 76 | 210 | 0.0 | 4.0 | 0.00 | 0.00 | 0.00 | 86 | 1014.5 |
| 20260905141503 | 76 | 210 | 2.0 | 8.0 | 0.00 | 0.00 | 0.00 | 85 | 1014.4 |
| 20260905141003 | 76 | 210 | 2.0 | 8.0 | 0.00 | 0.00 | 0.00 | 84 | 1014.4 |
| 20260905140503 | 77 | 210 | 0.0 | 4.0 | 0.00 | 0.00 | 0.00 | 84 | 1014.6 |
| 20260905140004 | 77 | 210 | 0.0 | 6.0 | 0.00 | 0.00 | 0.00 | 82 | 1014.8 |
| 20260905135503 | 77 | 210 | 0.0 | 6.0 | 0.00 | 0.00 | 0.00 | 82 | 1015.2 |
| 20260905135216 | 78 | 210 | 2.0 | 10.0 | 0.00 | 0.00 | 0.00 | 82 | 1015.2 |
| 20260905134717 | 78 | 210 | 2.0 | 10.0 | 0.00 | 0.00 | 0.00 | 83 | 1015.2 |
| 20260905134003 | 78 | 210 | 2.0 | 10.0 | 0.00 | 0.00 | 0.00 | 83 | 1015.0 |
| 20260905133717 | 78 | 210 | 2.0 | 10.0 | 0.00 | 0.00 | 0.00 | 82 | 1015.0 |
| 20260905133003 | 79 | 210 | 0.0 | 6.0 | 0.00 | 0.00 | 0.00 | 83 | 1014.8 |
| 20260905132503 | 79 | 210 | 0.0 | 6.0 | 0.00 | 0.00 | 0.00 | 84 | 1014.7 |
| 20260905132003 | 78 | 210 | 2.0 | 8.0 | 0.00 | 0.00 | 0.00 | 86 | 1014.6 |
| 20260905131503 | 76 | 210 | 2.0 | 8.0 | 0.00 | 0.00 | 0.00 | 88 | 1014.6 |
| 20260905131003 | 75 | 210 | 2.0 | 6.0 | 0.00 | 0.00 | 0.00 | 88 | 1014.7 |
| 20260905130503 | 75 | 210 | 0.0 | 6.0 | 0.00 | 0.00 | 0.00 | 88 | 1014.8 |
| 20260905130003 | 75 | 210 | 0.0 | 6.0 | 0.00 | 0.00 | 0.00 | 88 | 1014.9 |
| 20260905125503 | 75 | 210 | 0.0 | 6.0 | 0.00 | 0.00 | 0.00 | 88 | 1014.5 |
| 20260905125003 | 75 | 210 | 0.0 | 6.0 | 0.00 | 0.00 | 0.00 | 88 | 1013.9 |
| 20260905124503 | 75 | 210 | 0.0 | 4.0 | 0.00 | 0.00 | 0.00 | 88 | 1013.8 |
| 20260905124003 | 75 | 210 | 0.0 | 4.0 | 0.00 | 0.00 | 0.00 | 88 | 1014.1 |
| 20260905123503 | 75 | 210 | 0.0 | 4.0 | 0.00 | 0.00 | 0.00 | 88 | 1014.3 |
| 20260905123003 | 75 | 210 | 0.0 | 4.0 | 0.00 | 0.00 | 0.00 | 88 | 1014.2 |
| 20260905122503 | 75 | 210 | 0.0 | 6.0 | 0.00 | 0.00 | 0.00 | 89 | 1014.3 |
| 20260905122003 | 75 | 210 | 0.0 | 6.0 | 0.00 | 0.00 | 0.00 | 88 | 1014.4 |
| 20260905121503 | 75 | 210 | 0.0 | 4.0 | 0.00 | 0.00 | 0.00 | 89 | 1014.4 |
| 20260905121003 | 75 | 210 | 0.0 | 4.0 | 0.00 | 0.00 | 0.00 | 89 | 1014.2 |
| 20260905120503 | 75 | 210 | 0.0 | 4.0 | 0.00 | 0.00 | 0.00 | 89 | 1014.1 |
| 20260905120003 | 75 | 210 | 0.0 | 4.0 | 0.00 | 0.00 | 0.00 | 89 | 1013.9 |
| 20260905115717 | 75 | 210 | 0.0 | 6.0 | 0.00 | 0.00 | 0.00 | 89 | 1013.8 |
| 20260905115218 | 75 | 210 | 0.0 | 10.0 | 0.00 | 0.00 | 0.00 | 89 | 1013.7 |
| 20260905114717 | 75 | 210 | 2.0 | 10.0 | 0.00 | 0.00 | 0.00 | 89 | 1013.8 |
| 20260905114003 | 75 | 210 | 2.0 | 8.0 | 0.00 | 0.00 | 0.00 | 90 | 1013.9 |
| 20260905113503 | 75 | 210 | 2.0 | 8.0 | 0.00 | 0.00 | 0.00 | 92 | 1013.7 |
| 20260905113003 | 75 | 210 | 0.0 | 6.0 | 0.00 | 0.00 | 0.00 | 94 | 1013.7 |
| 20260905112503 | 74 | 0 | 0.0 | 0.0 | 0.00 | 0.00 | 0.00 | 95 | 1013.4 |
| 20260905112003 | 74 | 0 | 0.0 | 0.0 | 0.00 | 0.00 | 0.00 | 96 | 1013.3 |
| 20260905111503 | 74 | 0 | 0.0 | 0.0 | 0.00 | 0.00 | 0.00 | 95 | 1013.2 |
| 20260905111217 | 74 | 0 | 0.0 | 0.0 | 0.00 | 0.00 | 0.00 | 95 | 1013.2 |
| 20260905110503 | 74 | 0 | 0.0 | 0.0 | 0.00 | 0.00 | 0.00 | 95 | 1013.0 |
| 20260905110003 | 74 | 0 | 0.0 | 0.0 | 0.00 | 0.00 | 0.00 | 95 | 1012.8 |
| 20260905105503 | 74 | 0 | 0.0 | 0.0 | 0.00 | 0.00 | 0.00 | 95 | 1012.8 |
| 20260905105003 | 74 | 0 | 0.0 | 0.0 | 0.00 | 0.00 | 0.00 | 95 | 1012.7 |
| 20260905104503 | 74 | 0 | 0.0 | 0.0 | 0.00 | 0.00 | 0.00 | 95 | 1012.7 |
| 20260905104003 | 74 | 0 | 0.0 | 0.0 | 0.00 | 0.00 | 0.00 | 95 | 1012.7 |
| 20260905103718 | 74 | 0 | 0.0 | 0.0 | 0.00 | 0.00 | 0.00 | 95 | 1012.6 |
| 20260905103003 | 74 | 0 | 0.0 | 0.0 | 0.00 | 0.00 | 0.00 | 94 | 1012.4 |
| 20260905102503 | 74 | 0 | 0.0 | 0.0 | 0.00 | 0.00 | 0.00 | 94 | 1012.4 |
| 20260905102003 | 74 | 0 | 0.0 | 0.0 | 0.00 | 0.00 | 0.00 | 94 | 1012.5 |
| 20260905101503 | 74 | 0 | 0.0 | 0.0 | 0.00 | 0.00 | 0.00 | 94 | 1012.6 |
| 20260905101003 | 74 | 0 | 0.0 | 0.0 | 0.00 | 0.00 | 0.00 | 94 | 1012.7 |
| 20260905100503 | 74 | 0 | 0.0 | 0.0 | 0.00 | 0.00 | 0.00 | 94 | 1012.9 |
| 20260905100003 | 75 | 210 | 0.0 | 2.0 | 0.00 | 0.00 | 0.00 | 94 | 1012.9 |
| 20260905095503 | 75 | 210 | 0.0 | 4.0 | 0.00 | 0.00 | 0.00 | 94 | 1013.0 |
| 20260905095003 | 75 | 210 | 0.0 | 4.0 | 0.00 | 0.00 | 0.00 | 94 | 1012.9 |
| 20260905094503 | 75 | 0 | 0.0 | 0.0 | 0.00 | 0.00 | 0.00 | 94 | 1012.5 |
| 20260905094003 | 75 | 0 | 0.0 | 0.0 | 0.00 | 0.00 | 0.00 | 94 | 1012.5 |
| 20260905093503 | 75 | 0 | 0.0 | 0.0 | 0.00 | 0.00 | 0.00 | 94 | 1012.4 |
| 20260905093003 | 75 | 0 | 0.0 | 0.0 | 0.00 | 0.00 | 0.00 | 94 | 1012.2 |
| 20260905092503 | 75 | 0 | 0.0 | 0.0 | 0.00 | 0.00 | 0.00 | 93 | 1012.0 |
| 20260905092003 | 75 | 0 | 0.0 | 0.0 | 0.00 | 0.00 | 0.00 | 93 | 1011.9 |
| 20260905091503 | 75 | 0 | 0.0 | 0.0 | 0.00 | 0.00 | 0.00 | 94 | 1011.9 |
| 20260905091003 | 75 | 0 | 0.0 | 0.0 | 0.00 | 0.00 | 0.00 | 94 | 1011.8 |
| 20260905090503 | 75 | 0 | 0.0 | 0.0 | 0.00 | 0.00 | 0.00 | 93 | 1011.8 |
| 20260905090003 | 75 | 0 | 0.0 | 0.0 | 0.00 | 0.00 | 0.00 | 94 | 1011.8 |
| 20260905085503 | 75 | 0 | 0.0 | 0.0 | 0.00 | 0.00 | 0.00 | 94 | 1011.8 |
| 20260905085003 | 75 | 0 | 0.0 | 0.0 | 0.00 | 0.00 | 0.00 | 94 | 1011.7 |
| 20260905084503 | 75 | 0 | 0.0 | 0.0 | 0.00 | 0.00 | 0.00 | 93 | 1011.8 |
| 20260905084003 | 75 | 0 | 0.0 | 0.0 | 0.00 | 0.00 | 0.00 | 93 | 1011.8 |
| 20260905083503 | 75 | 0 | 0.0 | 0.0 | 0.00 | 0.00 | 0.00 | 93 | 1011.8 |
| 20260905083003 | 75 | 0 | 0.0 | 0.0 | 0.00 | 0.00 | 0.00 | 93 | 1011.9 |
| 20260905082503 | 75 | 0 | 0.0 | 0.0 | 0.00 | 0.00 | 0.00 | 93 | 1011.9 |
| 20260905082003 | 76 | 0 | 0.0 | 0.0 | 0.00 | 0.00 | 0.00 | 93 | 1011.9 |
| 20260905081503 | 76 | 0 | 0.0 | 0.0 | 0.00 | 0.00 | 0.00 | 93 | 1012.0 |
| 20260905081003 | 76 | 0 | 0.0 | 0.0 | 0.00 | 0.00 | 0.00 | 93 | 1012.1 |
| 20260905080503 | 76 | 210 | 0.0 | 2.0 | 0.00 | 0.00 | 0.00 | 92 | 1012.0 |
| 20260905080003 | 76 | 210 | 0.0 | 2.0 | 0.00 | 0.00 | 0.00 | 92 | 1012.0 |
| 20260905075503 | 76 | 0 | 0.0 | 0.0 | 0.00 | 0.00 | 0.00 | 93 | 1012.2 |
| 20260905075003 | 76 | 0 | 0.0 | 0.0 | 0.00 | 0.00 | 0.00 | 93 | 1012.2 |
| 20260905074503 | 76 | 0 | 0.0 | 0.0 | 0.00 | 0.00 | 0.00 | 93 | 1012.0 |
| 20260905074003 | 75 | 0 | 0.0 | 0.0 | 0.00 | 0.00 | 0.00 | 93 | 1012.1 |
| 20260905073503 | 75 | 0 | 0.0 | 0.0 | 0.00 | 0.00 | 0.00 | 93 | 1012.1 |
| 20260905073218 | 75 | 0 | 0.0 | 0.0 | 0.00 | 0.00 | 0.00 | 93 | 1012.2 |
| 20260905072717 | 75 | 0 | 0.0 | 0.0 | 0.00 | 0.00 | 0.00 | 93 | 1012.3 |
| 20260905072003 | 75 | 0 | 0.0 | 0.0 | 0.00 | 0.00 | 0.00 | 93 | 1012.1 |
| 20260905071717 | 76 | 0 | 0.0 | 0.0 | 0.00 | 0.00 | 0.00 | 93 | 1012.2 |
| 20260905071218 | 76 | 0 | 0.0 | 0.0 | 0.00 | 0.00 | 0.00 | 93 | 1012.3 |
| 20260905070503 | 76 | 210 | 0.0 | 2.0 | 0.00 | 0.00 | 0.00 | 93 | 1012.4 |
| 20260905070003 | 76 | 0 | 0.0 | 0.0 | 0.00 | 0.00 | 0.00 | 93 | 1012.4 |
| 20260905065503 | 76 | 0 | 0.0 | 0.0 | 0.00 | 0.00 | 0.00 | 93 | 1012.5 |
| 20260905065003 | 76 | 0 | 0.0 | 0.0 | 0.00 | 0.00 | 0.00 | 93 | 1012.5 |
| 20260905064717 | 76 | 0 | 0.0 | 0.0 | 0.00 | 0.00 | 0.00 | 93 | 1012.5 |
| 20260905064003 | 76 | 0 | 0.0 | 0.0 | 0.00 | 0.00 | 0.00 | 93 | 1012.7 |
| 20260905063503 | 76 | 0 | 0.0 | 0.0 | 0.00 | 0.00 | 0.00 | 93 | 1012.7 |
| 20260905063217 | 76 | 0 | 0.0 | 0.0 | 0.00 | 0.00 | 0.00 | 93 | 1012.7 |
| 20260905062717 | 75 | 0 | 0.0 | 0.0 | 0.00 | 0.00 | 0.00 | 93 | 1012.7 |
| 20260905062003 | 76 | 0 | 0.0 | 0.0 | 0.00 | 0.00 | 0.00 | 92 | 1012.8 |
| 20260905061503 | 76 | 0 | 0.0 | 0.0 | 0.00 | 0.00 | 0.00 | 92 | 1012.9 |
| 20260905061003 | 76 | 0 | 0.0 | 0.0 | 0.00 | 0.00 | 0.00 | 93 | 1013.0 |
| 20260905060503 | 76 | 0 | 0.0 | 0.0 | 0.00 | 0.00 | 0.00 | 93 | 1013.0 |
| 20260905060003 | 76 | 0 | 0.0 | 0.0 | 0.00 | 0.00 | 0.00 | 93 | 1013.1 |
| 20260905055503 | 76 | 0 | 0.0 | 0.0 | 0.00 | 0.00 | 0.00 | 92 | 1013.1 |
| 20260905055003 | 76 | 0 | 0.0 | 0.0 | 0.00 | 0.00 | 0.00 | 92 | 1013.2 |
| 20260905054716 | 76 | 0 | 0.0 | 0.0 | 0.00 | 0.00 | 0.00 | 92 | 1013.2 |
| 20260905054003 | 76 | 0 | 0.0 | 0.0 | 0.00 | 0.00 | 0.00 | 92 | 1013.2 |
| 20260905053503 | 76 | 0 | 0.0 | 0.0 | 0.00 | 0.00 | 0.00 | 92 | 1013.2 |
| 20260905053003 | 76 | 0 | 0.0 | 0.0 | 0.00 | 0.00 | 0.00 | 92 | 1013.3 |
| 20260905052503 | 76 | 0 | 0.0 | 0.0 | 0.00 | 0.00 | 0.00 | 92 | 1013.2 |
| 20260905052003 | 76 | 0 | 0.0 | 0.0 | 0.00 | 0.00 | 0.00 | 92 | 1013.2 |
| 20260905051503 | 76 | 0 | 0.0 | 0.0 | 0.00 | 0.00 | 0.00 | 92 | 1013.3 |
| 20260905051003 | 76 | 0 | 0.0 | 0.0 | 0.00 | 0.00 | 0.00 | 91 | 1013.4 |
| 20260905050718 | 76 | 0 | 0.0 | 0.0 | 0.00 | 0.00 | 0.00 | 91 | 1013.4 |
| 20260905050217 | 76 | 0 | 0.0 | 0.0 | 0.00 | 0.00 | 0.00 | 91 | 1013.4 |
| 20260905045503 | 77 | 0 | 0.0 | 0.0 | 0.00 | 0.00 | 0.00 | 91 | 1013.5 |
| 20260905045003 | 77 | 0 | 0.0 | 0.0 | 0.00 | 0.00 | 0.00 | 91 | 1013.4 |
| 20260905044503 | 77 | 0 | 0.0 | 0.0 | 0.00 | 0.00 | 0.00 | 91 | 1013.5 |
| 20260905044003 | 77 | 0 | 0.0 | 0.0 | 0.00 | 0.00 | 0.00 | 91 | 1013.5 |
| 20260905043503 | 77 | 0 | 0.0 | 0.0 | 0.00 | 0.00 | 0.00 | 90 | 1013.5 |
| 20260905043003 | 77 | 0 | 0.0 | 0.0 | 0.00 | 0.00 | 0.00 | 90 | 1013.5 |
| 20260905042503 | 77 | 0 | 0.0 | 0.0 | 0.00 | 0.00 | 0.00 | 90 | 1013.4 |
| 20260905042217 | 77 | 0 | 0.0 | 0.0 | 0.00 | 0.00 | 0.00 | 90 | 1013.4 |
| 20260905041503 | 77 | 0 | 0.0 | 0.0 | 0.00 | 0.00 | 0.00 | 90 | 1013.4 |
| 20260905041003 | 77 | 0 | 0.0 | 0.0 | 0.00 | 0.00 | 0.00 | 90 | 1013.3 |
| 20260905040503 | 78 | 0 | 0.0 | 0.0 | 0.00 | 0.00 | 0.00 | 90 | 1013.3 |
| 20260905040216 | 78 | 0 | 0.0 | 0.0 | 0.00 | 0.00 | 0.00 | 89 | 1013.3 |
| 20260905035503 | 78 | 0 | 0.0 | 0.0 | 0.00 | 0.00 | 0.00 | 89 | 1013.4 |
| 20260905035003 | 78 | 0 | 0.0 | 0.0 | 0.00 | 0.00 | 0.00 | 89 | 1013.4 |
| 20260905034503 | 78 | 0 | 0.0 | 0.0 | 0.00 | 0.00 | 0.00 | 88 | 1013.3 |
| 20260905034003 | 78 | 0 | 0.0 | 0.0 | 0.00 | 0.00 | 0.00 | 88 | 1013.4 |
| 20260905033503 | 78 | 0 | 0.0 | 0.0 | 0.00 | 0.00 | 0.00 | 88 | 1013.4 |
| 20260905033003 | 79 | 0 | 0.0 | 0.0 | 0.00 | 0.00 | 0.00 | 88 | 1013.4 |
| 20260905032717 | 79 | 0 | 0.0 | 0.0 | 0.00 | 0.00 | 0.00 | 88 | 1013.4 |
| 20260905032003 | 79 | 0 | 0.0 | 0.0 | 0.00 | 0.00 | 0.00 | 88 | 1013.5 |
| 20260905031503 | 79 | 0 | 0.0 | 0.0 | 0.00 | 0.00 | 0.00 | 88 | 1013.5 |
| 20260905031216 | 79 | 0 | 0.0 | 0.0 | 0.00 | 0.00 | 0.00 | 88 | 1013.5 |
| 20260905030717 | 79 | 0 | 0.0 | 0.0 | 0.00 | 0.00 | 0.00 | 88 | 1013.5 |
| 20260905030218 | 79 | 0 | 0.0 | 0.0 | 0.00 | 0.00 | 0.00 | 88 | 1013.5 |
| 20260905025503 | 79 | 0 | 0.0 | 0.0 | 0.00 | 0.00 | 0.00 | 88 | 1013.4 |
| 20260905025218 | 79 | 0 | 0.0 | 0.0 | 0.00 | 0.00 | 0.00 | 88 | 1013.4 |
| 20260905024503 | 79 | 0 | 0.0 | 0.0 | 0.00 | 0.00 | 0.00 | 87 | 1013.2 |
| 20260905024003 | 79 | 0 | 0.0 | 0.0 | 0.00 | 0.00 | 0.00 | 87 | 1013.2 |
| 20260905023503 | 79 | 0 | 0.0 | 0.0 | 0.00 | 0.00 | 0.00 | 87 | 1013.3 |
| 20260905023003 | 79 | 0 | 0.0 | 0.0 | 0.00 | 0.00 | 0.00 | 87 | 1013.3 |
| 20260905022503 | 79 | 0 | 0.0 | 0.0 | 0.00 | 0.00 | 0.00 | 87 | 1013.4 |
| 20260905022003 | 79 | 0 | 0.0 | 0.0 | 0.00 | 0.00 | 0.00 | 87 | 1013.4 |
| 20260905021503 | 79 | 0 | 0.0 | 0.0 | 0.00 | 0.00 | 0.00 | 87 | 1013.3 |
| 20260905021003 | 79 | 0 | 0.0 | 0.0 | 0.00 | 0.00 | 0.00 | 87 | 1013.3 |
| 20260905020717 | 79 | 0 | 0.0 | 0.0 | 0.00 | 0.00 | 0.00 | 86 | 1013.2 |
| 20260905020003 | 80 | 0 | 0.0 | 0.0 | 0.00 | 0.00 | 0.00 | 86 | 1013.2 |
| 20260905015503 | 80 | 0 | 0.0 | 0.0 | 0.00 | 0.00 | 0.00 | 86 | 1013.1 |
| 20260905015003 | 80 | 0 | 0.0 | 0.0 | 0.00 | 0.00 | 0.00 | 86 | 1013.1 |
| 20260905014503 | 80 | 0 | 0.0 | 0.0 | 0.00 | 0.00 | 0.00 | 86 | 1013.1 |
| 20260905014003 | 80 | 0 | 0.0 | 0.0 | 0.00 | 0.00 | 0.00 | 85 | 1013.1 |
| 20260905013717 | 80 | 0 | 0.0 | 0.0 | 0.00 | 0.00 | 0.00 | 85 | 1013.1 |
| 20260905013003 | 81 | 0 | 0.0 | 0.0 | 0.00 | 0.00 | 0.00 | 85 | 1013.1 |
| 20260905012503 | 81 | 0 | 0.0 | 0.0 | 0.00 | 0.00 | 0.00 | 85 | 1013.1 |
| 20260905012003 | 82 | 0 | 0.0 | 0.0 | 0.00 | 0.00 | 0.00 | 84 | 1013.0 |
| 20260905011717 | 82 | 0 | 0.0 | 0.0 | 0.00 | 0.00 | 0.00 | 84 | 1013.0 |
| 20260905011003 | 82 | 0 | 0.0 | 0.0 | 0.00 | 0.00 | 0.00 | 83 | 1012.9 |
| 20260905010503 | 83 | 0 | 0.0 | 0.0 | 0.00 | 0.00 | 0.00 | 82 | 1012.7 |
| 20260905010003 | 83 | 0 | 0.0 | 0.0 | 0.00 | 0.00 | 0.00 | 82 | 1012.7 |
| 20260905005503 | 83 | 0 | 0.0 | 0.0 | 0.00 | 0.00 | 0.00 | 81 | 1012.6 |
| 20260905005003 | 83 | 0 | 0.0 | 0.0 | 0.00 | 0.00 | 0.00 | 81 | 1012.7 |
| 20260905004503 | 83 | 0 | 0.0 | 0.0 | 0.00 | 0.00 | 0.00 | 81 | 1012.5 |
| 20260905004003 | 84 | 0 | 0.0 | 0.0 | 0.00 | 0.00 | 0.00 | 80 | 1012.4 |
| 20260905003503 | 84 | 0 | 0.0 | 0.0 | 0.00 | 0.00 | 0.00 | 79 | 1012.3 |
| 20260905003003 | 84 | 0 | 0.0 | 0.0 | 0.00 | 0.00 | 0.00 | 79 | 1012.3 |
| 20260905002503 | 85 | 0 | 0.0 | 0.0 | 0.00 | 0.00 | 0.00 | 79 | 1012.2 |
| 20260905002003 | 85 | 0 | 0.0 | 0.0 | 0.00 | 0.00 | 0.00 | 79 | 1012.2 |
| 20260905001503 | 86 | 0 | 0.0 | 0.0 | 0.00 | 0.00 | 0.00 | 77 | 1012.2 |
| 20260905001003 | 86 | 0 | 0.0 | 0.0 | 0.00 | 0.00 | 0.00 | 76 | 1012.3 |
| 20260905000503 | 87 | 0 | 0.0 | 0.0 | 0.00 | 0.00 | 0.00 | 75 | 1012.3 |
| 20260905000003 | 87 | 0 | 0.0 | 0.0 | 0.00 | 0.00 | 0.00 | 75 | 1012.3 |
| 20260904235503 | 88 | 0 | 0.0 | 0.0 | 0.00 | 0.00 | 0.00 | 74 | 1012.5 |
| 20260904235003 | 88 | 0 | 0.0 | 0.0 | 0.00 | 0.00 | 0.00 | 72 | 1012.6 |